Wind_Speed
84 85 86 87 88 89 90 90 91 91 92 92 92 92 92 92 92 92 92 91 91 90 90 89 89 88 88 88 88 88 88 89 90 91 93 96 97 99 102 104 108 111 111 109 107 103 101 101 99 97 95 94 94 93 92 91 90 90 91 92 92 91 90
83 84 85 86 87 89 90 91 92 93 93 94 94 95 95 95 95 95 94 94 93 93 93 92 91 90 89 90 89 88 88 88 88 88 89 91 92 94 96 98 102 106 109 110 108 104 102 102 101 100 98 97 97 96 95 94 93 92 92 92 93 93 92
79 80 81 82 83 85 86 87 88 89 91 92 93 94 95 96 97 97 97 96 96 95 95 94 93 92 92 92 91 89 89 88 88 88 88 88 89 91 91 93 96 99 104 107 107 104 101 101 101 101 100 100 99 98 98 97 96 95 94 93 93 94 94
76 77 79 80 81 82 83 84 85 86 87 88 90 91 92 93 94 96 96 97 97 97 97 97 95 94 94 94 93 91 90 90 89 89 89 88 89 89 90 90 92 94 97 101 103 102 99 98 99 100 100 101 101 100 100 100 99 98 97 95 94 95 95
75 77 78 79 80 81 82 83 83 84 85 86 87 88 89 90 91 92 93 94 95 96 97 98 97 96 96 95 95 93 92 92 91 91 90 90 89 90 90 90 90 91 93 95 98 98 97 95 95 97 98 99 100 101 101 101 101 101 100 98 97 96 96
74 75 76 77 78 79 79 80 80 81 82 83 84 85 86 87 88 89 89 90 91 92 94 95 96 96 97 97 96 95 95 94 94 93 93 92 91 91 91 91 90 90 91 92 93 94 93 91 91 92 93 95 98 100 101 102 103 102 102 101 100 99 98
71 72 74 75 75 76 76 76 77 77 78 79 81 82 83 83 83 84 85 86 87 88 90 91 92 94 95 96 97 96 96 96 96 96 95 94 94 93 93 92 91 91 91 91 91 91 90 89 87 87 88 89 93 97 100 100 102 103 103 103 103 102 101
70 71 72 73 73 74 74 74 74 74 75 76 77 78 79 78 79 79 79 80 81 82 84 85 87 89 91 92 94 95 96 97 98 98 97 96 96 95 95 94 93 93 92 92 91 90 89 88 86 84 83 84 87 92 95 97 99 102 103 103 104 104 104
70 71 72 72 72 72 72 72 71 71 72 73 73 74 74 74 74 74 74 75 75 76 77 79 81 83 85 87 89 91 93 95 97 98 99 98 98 97 97 96 96 95 94 93 92 91 90 89 87 84 82 81 83 85 88 92 96 99 102 103 104 105 106
70 71 72 72 71 71 70 69 68 68 69 69 70 70 70 70 69 69 69 69 69 70 71 73 75 77 79 81 84 86 89 91 94 96 98 99 99 99 99 98 98 97 96 96 95 93 92 91 88 85 82 80 80 81 83 86 90 94 99 102 104 105 106
71 72 72 72 70 69 68 66 65 65 65 65 66 66 66 66 65 64 64 63 63 64 66 68 70 72 74 76 78 81 83 86 89 92 94 96 98 100 100 100 100 99 98 98 97 95 94 93 91 87 85 81 79 79 80 81 84 88 94 99 102 104 104
71 72 72 71 70 68 66 64 62 62 61 61 61 61 62 62 60 58 57 56 57 58 59 61 64 66 69 71 73 75 78 80 83 86 89 92 95 97 99 101 101 101 100 99 98 97 96 95 93 90 87 83 80 80 80 79 80 83 87 92 97 100 101
72 72 72 71 69 67 64 61 60 59 58 58 57 56 57 57 55 53 51 50 51 52 53 54 56 58 61 63 67 70 73 75 77 80 83 87 90 93 96 98 100 101 101 101 100 99 97 95 94 93 90 86 84 83 81 79 79 80 83 87 91 94 97
72 72 72 71 68 66 62 59 58 57 56 55 54 54 54 54 52 49 48 47 47 48 48 48 49 51 52 54 58 62 65 69 72 75 78 81 85 88 91 94 97 99 101 102 102 101 98 96 95 94 91 89 88 87 84 81 81 82 84 85 86 88 92
71 72 71 70 67 64 60 57 56 55 54 53 52 52 51 50 48 46 45 44 44 44 44 44 45 46 46 47 50 53 56 61 65 69 72 75 78 82 86 89 92 94 97 99 102 102 100 98 97 95 93 92 91 89 87 86 86 86 86 86 84 84 86
71 71 71 69 66 63 58 55 54 54 52 51 50 49 47 45 44 43 42 40 40 41 41 41 41 42 42 43 44 46 49 52 57 61 66 69 72 75 79 83 86 89 92 94 97 100 101 100 99 97 96 94 93 91 90 90 90 90 88 87 86 84 84
70 71 70 67 65 62 57 54 52 51 50 47 46 45 43 42 41 40 39 38 38 38 38 38 39 40 40 40 40 41 43 45 49 53 58 61 65 68 72 75 78 81 85 88 91 95 97 98 99 99 98 97 95 94 93 93 93 91 90 90 89 87 85
69 69 69 66 63 60 57 53 50 49 47 44 41 41 41 41 40 39 37 37 37 36 36 36 38 39 40 39 38 38 39 41 43 47 51 54 57 60 63 65 67 71 76 80 83 87 90 93 95 97 98 98 97 96 96 96 94 91 91 92 92 90 88
68 68 67 64 61 58 55 52 48 47 46 42 38 38 39 40 39 38 37 38 37 35 35 36 37 38 39 38 37 37 37 37 40 44 46 48 51 53 53 53 56 61 66 70 75 79 83 86 88 91 94 96 97 97 98 98 95 93 94 95 93 91 90
67 67 65 62 59 55 53 50 47 46 45 42 37 36 38 39 39 38 37 36 34 33 33 34 35 35 36 36 36 35 34 34 37 40 43 44 45 44 42 43 46 51 56 61 66 70 74 78 80 83 86 90 93 95 97 98 96 95 96 96 94 93 93
66 66 64 60 57 53 51 49 46 46 45 42 38 36 37 39 39 38 37 33 30 30 31 31 32 31 30 30 30 30 30 31 34 37 39 39 37 35 34 36 38 42 47 52 56 59 64 68 71 74 78 81 85 88 92 94 96 96 97 96 95 95 95
65 64 62 58 54 50 48 47 46 46 45 43 39 37 36 36 36 36 34 29 26 26 27 27 26 25 24 23 24 24 26 29 31 34 35 34 32 30 30 31 32 34 38 42 45 48 52 56 59 63 67 70 74 78 83 86 90 93 95 96 95 95 97
64 63 60 55 50 47 45 45 46 46 46 43 40 37 34 33 32 32 30 26 23 23 23 22 20 19 18 19 21 22 23 25 27 29 29 28 28 29 29 27 27 28 31 33 36 38 41 44 47 51 54 57 61 66 71 75 79 84 88 91 93 95 96
62 61 59 54 48 44 42 43 44 46 46 43 40 36 32 29 28 27 25 23 22 21 19 18 16 15 15 17 18 18 18 19 21 22 22 23 24 26 26 24 24 25 26 28 29 30 32 34 37 41 43 46 50 54 59 64 68 73 77 81 85 88 91
61 60 58 53 47 41 39 40 42 45 45 43 40 36 30 27 25 24 22 21 20 19 16 14 13 12 12 13 13 13 13 15 17 19 19 20 21 22 23 22 22 23 24 24 24 24 25 27 31 34 36 39 42 46 50 54 58 62 67 71 75 78 81
60 59 57 53 47 39 36 37 40 43 44 43 39 34 29 25 23 22 20 19 18 16 13 11 10 9 9 10 9 10 13 16 17 18 19 19 20 20 20 20 20 21 22 21 21 20 21 23 26 28 30 33 36 39 42 45 49 53 57 61 65 68 72
59 59 56 52 46 38 33 33 37 40 42 41 36 30 26 24 21 19 18 17 16 13 10 9 10 9 9 9 11 14 16 16 17 17 18 18 18 18 18 17 17 18 18 18 18 18 19 21 22 24 25 27 29 32 34 37 41 45 48 52 56 59 63
57 57 55 52 47 38 31 30 34 38 39 38 33 27 23 22 20 18 17 16 14 12 10 10 11 11 12 14 16 18 18 16 16 16 17 17 16 16 15 15 15 14 14 14 14 15 16 18 19 20 22 23 24 26 28 31 34 37 40 44 47 50 53
57 57 55 52 48 40 31 27 30 34 36 34 30 25 22 20 19 18 17 15 13 12 12 13 13 13 15 17 18 19 18 16 15 15 15 14 14 13 13 12 12 11 11 11 12 12 13 15 16 18 19 20 21 22 24 26 29 32 34 37 40 43 45
58 59 57 54 50 44 35 27 27 31 33 31 28 25 22 20 18 17 16 16 16 15 15 15 15 15 15 16 17 18 17 15 13 13 13 12 12 11 11 11 10 9 9 9 10 11 12 13 15 16 17 18 19 20 22 24 26 28 31 33 35 37 38
58 59 59 57 53 47 39 31 27 30 31 29 26 24 23 20 17 16 16 15 16 16 16 15 15 14 14 13 15 17 16 12 11 11 11 11 11 11 11 10 9 9 8 8 9 10 11 12 13 13 14 15 16 17 20 22 24 25 27 29 30 32 33
57 58 59 59 56 51 44 34 28 28 30 29 25 23 23 20 17 16 16 15 14 16 16 14 13 13 12 11 14 15 13 10 9 9 9 10 10 10 9 9 8 8 9 9 10 11 11 11 11 11 12 12 13 15 17 19 21 23 24 25 27 29 30
56 57 58 58 57 54 49 40 31 27 28 29 25 21 20 20 17 16 17 16 14 15 15 13 12 11 10 11 13 13 11 8 8 8 8 9 8 8 8 8 8 8 9 10 10 10 10 10 10 10 11 11 12 13 15 17 19 20 22 23 25 26 27
54 55 56 57 56 55 51 45 36 29 28 29 27 22 19 18 16 15 16 16 15 14 13 13 12 11 10 11 12 11 9 7 7 7 7 7 6 6 6 6 7 8 9 9 9 10 10 10 10 10 11 11 12 13 14 15 16 17 19 21 23 24 25
51 53 54 55 55 54 51 47 40 32 27 27 27 24 20 18 16 15 14 14 14 13 13 12 12 11 11 12 12 10 8 7 7 7 7 6 5 5 5 5 6 7 7 8 8 8 9 9 9 10 10 11 12 13 14 15 16 16 17 18 20 21 22
50 51 52 53 54 53 51 48 43 35 27 24 25 24 22 19 17 15 14 13 13 13 13 12 12 11 11 12 11 9 7 7 8 8 7 6 6 6 6 6 6 6 7 7 7 7 8 8 9 9 10 11 11 12 13 14 15 15 16 17 18 19 21
Wind_Direction
284 284 283 282 281 280 279 278 277 276 275 274 273 272 271 270 270 269 268 267 266 265 265 264 263 263 263 262 262 261 261 260 260 260 259 259 258 258 258 257 257 256 255 254 253 252 251 250 249 247 246 245 245 245 244 243 243 243 244 244 243 241 239
287 286 285 284 283 281 280 279 278 277 276 274 273 272 271 270 269 268 267 266 266 265 264 263 263 262 262 261 261 260 260 259 259 259 259 258 258 257 257 257 256 256 255 254 253 252 251 250 249 248 246 245 244 244 244 243 242 242 242 243 243 242 240
290 289 288 287 285 284 283 281 280 278 277 275 274 272 271 270 269 267 266 266 265 264 264 263 262 262 261 260 260 259 259 259 258 258 258 257 257 257 257 257 256 256 255 254 253 252 250 250 249 248 246 245 244 243 243 243 242 242 241 242 242 243 241
293 292 291 290 288 287 285 283 282 280 278 277 275 273 271 270 268 267 266 265 264 263 263 262 262 261 260 260 259 259 258 258 258 257 257 256 256 256 256 256 256 256 255 254 253 252 251 249 249 248 246 245 244 243 242 242 242 242 241 240 241 242 242
296 295 293 292 291 289 287 286 284 282 280 278 276 274 272 271 269 267 266 265 264 263 262 261 261 260 260 259 259 258 258 257 257 256 256 255 255 255 255 255 255 255 255 255 254 252 251 250 249 248 246 245 244 243 242 241 241 241 241 240 240 240 241
299 298 296 295 293 292 290 288 286 284 282 280 278 276 274 272 270 268 267 265 264 263 262 261 260 259 259 258 258 258 257 257 256 256 255 255 254 254 254 254 254 254 254 254 254 253 252 251 249 248 246 245 244 243 241 240 240 240 240 240 239 239 239
302 301 300 299 297 295 293 291 289 287 284 282 279 277 275 273 272 270 268 266 265 263 262 261 260 259 259 258 257 257 256 256 255 255 255 254 254 254 254 253 253 253 253 253 254 254 253 251 250 249 247 246 244 243 242 241 240 239 239 239 239 239 238
307 305 304 303 301 299 297 294 292 289 286 283 281 278 277 275 273 272 270 268 267 265 263 262 261 260 259 258 257 256 255 255 255 254 254 254 253 253 253 253 253 252 252 253 253 253 253 252 250 249 248 247 245 244 242 241 240 239 238 238 238 238 238
311 310 308 307 305 302 300 297 294 291 288 285 282 280 278 277 275 273 272 270 269 267 265 263 261 260 259 258 257 256 255 254 254 254 253 253 253 252 252 252 252 252 252 252 252 251 252 251 250 249 248 247 246 245 243 242 241 240 238 238 237 237 237
315 313 312 310 308 305 302 299 296 293 289 287 285 283 281 279 277 275 273 272 270 269 267 265 263 260 258 257 256 255 255 254 253 253 253 252 252 252 252 251 251 251 251 251 251 250 250 250 250 249 248 247 246 246 245 243 242 241 239 238 237 236 236
317 316 315 313 311 308 305 301 298 294 291 289 287 285 283 281 279 277 275 274 271 269 267 265 263 261 259 257 256 255 254 253 253 253 252 252 251 251 251 251 250 250 250 250 250 250 250 249 249 248 248 247 246 246 246 244 243 242 240 240 238 236 236
320 319 317 316 313 311 307 304 300 296 294 291 289 288 286 284 282 280 278 276 273 270 267 265 263 262 260 258 257 255 254 253 252 252 252 251 251 250 250 250 250 249 250 250 250 250 249 249 249 248 248 247 246 245 245 245 244 243 242 241 240 238 236
322 321 320 318 316 313 310 306 302 298 296 293 291 290 288 287 286 284 282 279 276 272 269 267 264 262 261 259 257 256 254 253 252 252 252 251 251 250 250 250 250 249 249 249 249 249 249 249 249 248 247 247 246 245 244 244 244 244 243 243 241 240 238
323 323 322 320 317 315 312 308 303 300 297 295 293 291 289 289 289 288 286 283 280 277 273 270 267 264 262 260 258 257 255 254 253 252 251 251 251 251 250 250 250 249 249 249 248 248 248 248 248 248 247 246 246 245 244 243 243 243 243 243 242 241 240
324 324 323 321 319 316 313 309 304 300 298 296 294 292 291 292 292 290 288 286 284 281 278 275 272 268 265 262 259 258 256 255 253 252 251 251 251 251 251 250 250 250 249 249 249 248 247 247 247 248 247 246 246 245 244 243 242 242 242 242 241 241 241
325 325 325 323 320 318 314 309 304 301 299 298 296 295 295 295 293 292 290 289 287 284 282 279 276 273 269 265 262 260 258 257 255 254 252 251 251 251 251 251 250 250 250 249 249 249 248 247 246 246 246 246 246 245 244 243 242 241 241 242 241 240 240
327 327 326 324 321 318 314 309 304 302 300 299 299 298 297 296 294 293 292 290 287 285 283 281 279 276 272 269 266 263 262 260 259 258 256 254 252 251 250 251 251 251 251 250 249 249 248 248 247 246 245 245 245 245 245 244 243 242 242 242 241 240 240
328 328 327 325 322 318 314 309 305 302 302 302 301 300 298 296 295 294 292 289 286 285 284 281 279 277 275 272 269 266 265 264 263 262 260 258 256 253 251 251 252 252 252 251 251 250 249 248 247 246 246 245 244 244 244 244 243 243 243 243 242 240 240
329 330 329 326 323 318 313 310 307 304 304 305 305 303 300 297 295 294 291 289 287 286 284 280 277 276 275 275 272 269 267 265 265 263 262 261 259 257 254 251 250 250 251 251 251 250 250 248 248 247 246 246 245 245 244 244 243 242 243 243 243 242 240
330 331 330 327 323 318 313 310 308 306 306 309 309 306 302 299 297 294 291 289 288 285 281 277 275 274 274 274 274 273 271 268 266 265 264 263 261 260 258 254 250 248 248 249 249 249 249 249 248 247 247 246 246 246 245 245 244 242 242 242 243 243 242
332 333 332 329 324 318 313 310 308 307 308 311 312 310 305 301 298 295 293 292 289 283 278 275 275 274 273 274 274 274 273 270 267 267 267 267 266 264 260 255 250 248 247 247 247 247 248 248 248 247 247 246 246 246 246 246 245 244 243 242 242 242 242
333 334 333 330 324 318 312 310 308 308 311 314 315 313 308 303 299 297 295 294 289 282 279 277 276 274 272 269 267 266 265 265 264 266 267 270 271 270 265 258 252 248 248 247 246 246 247 247 248 247 247 246 245 245 245 245 245 244 244 243 242 241 242
334 335 335 332 325 317 312 309 308 310 313 316 317 315 310 305 302 299 298 296 290 284 282 280 277 270 260 254 253 255 258 260 261 262 264 267 269 269 267 263 257 251 248 247 246 245 245 246 246 246 246 245 244 244 244 244 244 243 243 242 241 241 241
335 336 337 334 328 319 312 309 309 311 314 316 318 316 312 308 306 303 300 299 295 291 286 279 270 260 251 248 250 254 259 264 264 263 264 265 266 266 264 260 255 250 247 244 243 243 242 243 243 244 243 243 242 242 242 241 241 241 241 241 240 239 240
336 338 338 337 331 322 314 310 309 310 313 316 318 317 314 312 309 305 303 302 299 296 290 278 266 260 259 257 257 262 273 277 273 269 267 265 262 260 258 254 250 246 243 240 237 237 238 238 239 239 239 239 238 238 239 239 239 240 240 239 239 238 238
338 339 340 339 334 325 316 310 309 310 313 316 317 315 314 313 309 306 305 304 300 297 292 284 277 277 278 277 280 291 294 285 275 268 264 261 257 254 252 249 245 241 239 235 231 230 234 237 237 237 236 236 236 236 236 237 237 237 237 237 237 236 236
339 341 342 342 338 330 319 312 310 310 312 315 315 313 312 312 309 308 306 304 302 299 296 295 296 299 308 316 317 311 300 287 274 266 260 255 252 250 246 243 239 237 235 233 230 231 234 237 237 236 235 235 235 235 235 234 234 234 235 235 235 234 234
340 342 343 344 342 335 324 314 310 310 312 315 314 312 312 311 309 309 309 305 303 305 307 307 309 320 331 330 319 307 296 284 272 264 257 252 250 246 241 238 235 232 231 231 232 234 236 238 238 236 235 234 234 233 233 232 232 232 232 232 232 231 231
341 343 345 346 345 341 331 318 312 312 315 316 314 312 312 311 309 310 312 310 309 313 314 313 318 327 327 319 309 299 289 278 267 260 255 250 248 245 239 234 228 225 226 228 231 232 234 237 238 236 235 235 233 233 232 231 230 229 229 229 229 228 228
342 344 346 347 347 345 339 327 318 317 318 318 315 312 312 310 308 309 312 312 311 313 312 312 316 316 310 304 300 291 280 269 262 259 253 247 243 242 238 232 224 221 224 228 227 225 226 230 233 233 233 233 231 230 230 229 228 227 227 227 227 227 227
343 344 345 347 348 348 344 336 326 322 322 321 316 311 309 308 306 305 307 307 305 305 305 306 305 299 293 293 291 282 270 262 259 257 251 246 241 238 237 233 225 221 220 221 221 221 220 222 225 226 227 227 226 226 227 227 226 226 225 225 225 225 225
343 345 346 346 347 348 347 342 333 326 325 324 318 310 306 306 304 302 303 303 301 299 299 300 296 288 286 289 283 271 263 258 257 253 248 245 243 240 238 236 230 224 218 214 214 215 216 217 217 219 221 222 220 220 221 223 223 223 222 221 220 220 220
343 345 346 346 346 347 347 345 339 331 326 325 322 312 303 300 299 298 298 299 298 295 293 294 290 285 284 281 273 264 258 253 250 247 245 244 244 243 242 238 233 228 223 218 214 213 214 213 212 213 215 216 216 214 215 217 219 218 216 215 215 215 214
343 344 346 347 346 346 346 346 343 336 329 326 324 318 307 298 294 292 291 293 294 292 289 285 281 280 279 272 263 257 252 245 240 240 242 240 237 237 239 238 234 229 226 223 219 215 212 211 209 209 210 211 211 210 210 212 214 213 210 209 209 208 207
344 344 345 346 347 346 345 345 344 340 332 326 323 319 312 302 294 288 286 287 289 289 285 278 273 273 274 266 257 250 243 236 231 232 235 232 222 217 221 228 231 229 225 221 216 210 206 205 204 204 206 207 207 206 206 207 209 209 207 205 204 202 200
345 345 345 346 346 346 345 345 344 342 336 328 321 317 311 302 294 286 282 282 283 283 282 276 271 270 268 261 252 244 236 231 226 225 226 224 214 207 209 215 220 223 223 221 215 207 203 201 200 200 200 200 199 199 199 200 202 203 202 200 199 197 197
Height
5303 5300 5297 5293 5290 5287 5284 5282 5279 5277 5274 5273 5272 5271 5269 5268 5267 5266 5266 5266 5267 5268 5267 5268 5271 5272 5274 5273 5274 5277 5279 5280 5282 5283 5285 5287 5290 5292 5294 5296 5297 5301 5313 5321 5326 5336 5344 5347 5352 5358 5365 5369 5371 5374 5379 5383 5388 5391 5394 5398 5404 5410 5416
5289 5286 5282 5278 5275 5271 5268 5266 5263 5260 5258 5256 5255 5254 5252 5251 5250 5249 5250 5250 5251 5252 5251 5252 5255 5258 5259 5258 5259 5263 5264 5266 5268 5269 5271 5274 5275 5277 5279 5280 5281 5285 5292 5299 5306 5317 5326 5330 5334 5341 5348 5353 5356 5361 5364 5368 5374 5378 5382 5386 5390 5395 5402
5276 5272 5267 5264 5260 5256 5253 5250 5247 5244 5241 5239 5237 5235 5234 5233 5232 5231 5233 5233 5235 5236 5235 5236 5239 5242 5243 5243 5244 5248 5250 5251 5254 5255 5257 5260 5260 5262 5265 5266 5267 5270 5274 5279 5286 5297 5308 5314 5316 5323 5332 5335 5340 5346 5350 5354 5360 5364 5369 5374 5376 5381 5388
5263 5259 5254 5249 5245 5241 5238 5234 5230 5227 5225 5221 5219 5217 5215 5214 5213 5213 5214 5216 5217 5219 5219 5220 5223 5226 5227 5227 5229 5234 5236 5237 5240 5241 5242 5245 5246 5247 5250 5252 5253 5255 5258 5261 5267 5277 5290 5297 5299 5306 5315 5318 5322 5331 5336 5339 5344 5349 5354 5360 5364 5368 5374
5251 5246 5241 5236 5231 5227 5223 5218 5214 5211 5208 5204 5200 5198 5197 5196 5195 5196 5197 5199 5200 5201 5202 5203 5206 5209 5211 5211 5214 5218 5220 5222 5224 5225 5227 5230 5232 5233 5235 5237 5239 5242 5244 5246 5251 5260 5270 5279 5283 5289 5297 5302 5305 5314 5320 5323 5328 5334 5339 5346 5351 5355 5360
5239 5233 5228 5223 5217 5212 5208 5203 5199 5195 5191 5187 5183 5180 5178 5177 5178 5178 5180 5182 5183 5184 5185 5186 5189 5192 5193 5195 5198 5201 5204 5205 5207 5209 5211 5214 5217 5219 5220 5223 5226 5229 5230 5232 5237 5244 5252 5261 5268 5272 5280 5287 5289 5294 5301 5307 5313 5319 5324 5330 5336 5341 5347
5228 5221 5215 5209 5204 5198 5193 5189 5184 5179 5174 5170 5166 5163 5161 5161 5161 5162 5163 5165 5166 5167 5169 5170 5172 5175 5176 5178 5181 5184 5186 5188 5189 5192 5195 5198 5202 5204 5206 5209 5213 5215 5217 5219 5224 5229 5235 5244 5252 5256 5265 5272 5273 5276 5284 5291 5298 5304 5309 5314 5319 5325 5331
5217 5211 5204 5197 5191 5185 5180 5175 5170 5164 5158 5154 5150 5147 5146 5146 5146 5147 5148 5149 5150 5152 5153 5155 5157 5158 5160 5162 5164 5166 5169 5170 5172 5174 5178 5182 5185 5188 5190 5194 5198 5200 5203 5207 5211 5216 5221 5227 5235 5242 5251 5257 5257 5261 5270 5276 5280 5286 5293 5298 5303 5309 5315
5206 5199 5193 5186 5179 5173 5167 5161 5156 5150 5144 5139 5135 5133 5132 5133 5132 5132 5133 5135 5136 5137 5138 5139 5140 5142 5144 5145 5146 5149 5151 5154 5155 5157 5161 5166 5168 5171 5174 5179 5182 5185 5189 5193 5197 5202 5207 5211 5218 5228 5236 5242 5244 5248 5256 5260 5262 5268 5278 5283 5287 5293 5298
5197 5189 5182 5175 5169 5162 5155 5149 5143 5137 5131 5126 5122 5121 5120 5120 5120 5120 5121 5122 5123 5124 5123 5123 5124 5126 5127 5128 5130 5133 5135 5138 5139 5140 5144 5149 5151 5154 5158 5162 5166 5170 5174 5178 5182 5188 5193 5196 5203 5213 5220 5227 5233 5236 5241 5245 5248 5254 5262 5265 5267 5276 5284
5188 5180 5172 5164 5158 5151 5144 5138 5131 5125 5120 5115 5111 5109 5106 5106 5108 5109 5110 5110 5110 5110 5110 5109 5109 5110 5112 5113 5115 5118 5120 5122 5123 5125 5128 5131 5134 5137 5141 5145 5150 5155 5159 5163 5167 5174 5178 5182 5190 5198 5205 5213 5222 5224 5226 5232 5236 5240 5245 5246 5250 5262 5272
5179 5171 5162 5154 5147 5140 5134 5127 5121 5114 5110 5106 5103 5099 5095 5094 5096 5098 5099 5098 5097 5097 5097 5096 5096 5097 5098 5100 5102 5103 5105 5107 5109 5111 5113 5115 5118 5121 5125 5129 5133 5139 5145 5149 5153 5158 5164 5169 5177 5184 5190 5201 5209 5211 5213 5219 5224 5227 5230 5232 5236 5246 5255
5171 5162 5153 5145 5137 5131 5124 5117 5111 5105 5101 5097 5094 5091 5086 5084 5085 5087 5087 5087 5085 5085 5085 5085 5085 5085 5086 5088 5088 5089 5091 5094 5096 5098 5099 5101 5103 5106 5110 5114 5118 5123 5129 5133 5138 5142 5150 5158 5163 5168 5177 5187 5192 5194 5200 5208 5213 5215 5215 5217 5221 5230 5238
5163 5154 5145 5136 5128 5122 5116 5109 5102 5097 5093 5089 5086 5083 5079 5077 5077 5077 5077 5076 5075 5074 5074 5074 5074 5075 5076 5077 5077 5078 5079 5081 5083 5085 5086 5087 5090 5092 5097 5101 5104 5108 5113 5118 5122 5127 5136 5145 5148 5152 5162 5171 5173 5177 5187 5195 5198 5199 5199 5202 5209 5216 5222
5155 5147 5138 5128 5120 5114 5108 5101 5094 5089 5086 5082 5079 5076 5073 5072 5071 5070 5069 5068 5067 5065 5065 5065 5065 5065 5066 5067 5068 5068 5069 5069 5071 5072 5073 5076 5078 5081 5084 5087 5092 5096 5099 5103 5107 5111 5121 5130 5134 5138 5146 5152 5156 5163 5172 5178 5180 5182 5184 5189 5196 5204 5208
5148 5139 5130 5121 5112 5106 5101 5094 5087 5082 5078 5076 5072 5069 5067 5066 5064 5063 5062 5061 5060 5058 5057 5057 5056 5056 5057 5058 5059 5060 5060 5060 5060 5060 5062 5064 5067 5070 5072 5074 5080 5083 5086 5090 5093 5096 5104 5112 5119 5125 5130 5136 5142 5148 5155 5159 5161 5167 5173 5178 5185 5193 5198
5141 5132 5122 5113 5105 5098 5093 5087 5081 5075 5072 5070 5067 5063 5061 5059 5058 5057 5056 5055 5053 5052 5051 5051 5049 5048 5048 5049 5051 5052 5052 5052 5051 5051 5051 5053 5056 5059 5061 5065 5070 5072 5073 5076 5079 5082 5088 5095 5102 5109 5115 5121 5127 5133 5138 5140 5144 5155 5163 5165 5170 5179 5186
5135 5126 5116 5107 5098 5090 5084 5080 5075 5070 5067 5066 5063 5059 5056 5053 5052 5051 5050 5048 5047 5046 5046 5045 5043 5041 5040 5042 5043 5044 5045 5045 5044 5043 5042 5043 5045 5048 5051 5058 5062 5060 5060 5063 5065 5068 5073 5079 5086 5092 5099 5105 5111 5117 5121 5122 5131 5144 5149 5148 5155 5165 5174
5128 5120 5110 5100 5092 5084 5077 5073 5069 5064 5061 5061 5059 5055 5051 5048 5046 5045 5044 5042 5041 5041 5040 5038 5037 5035 5034 5034 5036 5037 5038 5038 5037 5035 5035 5035 5036 5038 5044 5050 5051 5049 5049 5051 5053 5056 5060 5066 5072 5078 5084 5090 5096 5101 5104 5108 5120 5131 5131 5132 5142 5153 5160
5122 5114 5104 5095 5086 5079 5071 5067 5064 5059 5056 5055 5054 5051 5046 5043 5040 5039 5037 5037 5036 5035 5034 5032 5031 5030 5029 5029 5029 5030 5031 5031 5030 5028 5028 5028 5029 5032 5036 5039 5039 5039 5039 5040 5043 5047 5049 5054 5060 5065 5071 5078 5082 5086 5090 5095 5106 5114 5115 5120 5132 5140 5144
5116 5108 5099 5089 5080 5073 5066 5061 5058 5055 5051 5050 5049 5046 5041 5037 5034 5032 5031 5031 5031 5029 5027 5026 5025 5025 5025 5024 5024 5025 5025 5025 5024 5023 5022 5022 5024 5026 5028 5029 5029 5031 5031 5032 5035 5039 5041 5044 5049 5053 5059 5065 5070 5073 5077 5082 5090 5096 5100 5108 5119 5126 5128
5111 5103 5094 5085 5076 5068 5062 5057 5053 5050 5047 5045 5043 5040 5036 5032 5029 5026 5025 5026 5025 5023 5021 5021 5021 5020 5020 5020 5020 5021 5020 5020 5019 5018 5018 5018 5019 5020 5020 5021 5023 5024 5025 5027 5030 5032 5034 5037 5040 5044 5049 5054 5058 5062 5065 5069 5074 5080 5085 5095 5105 5111 5113
5106 5098 5090 5082 5073 5065 5058 5053 5049 5045 5042 5041 5038 5035 5031 5027 5024 5022 5020 5020 5020 5019 5017 5017 5017 5017 5017 5017 5017 5016 5016 5015 5015 5014 5014 5014 5014 5014 5015 5016 5017 5019 5020 5022 5024 5026 5029 5031 5033 5036 5040 5044 5048 5051 5053 5056 5061 5065 5071 5080 5089 5095 5099
5102 5094 5086 5078 5070 5062 5055 5049 5045 5041 5038 5036 5034 5031 5027 5023 5020 5018 5016 5016 5015 5015 5014 5014 5014 5014 5014 5013 5013 5012 5012 5011 5011 5010 5010 5010 5010 5010 5011 5012 5013 5014 5015 5016 5018 5021 5023 5026 5027 5029 5032 5035 5038 5040 5042 5045 5049 5053 5058 5065 5073 5080 5085
5097 5089 5082 5074 5066 5059 5053 5047 5042 5038 5034 5032 5030 5026 5023 5020 5018 5015 5014 5013 5012 5011 5011 5010 5011 5011 5010 5010 5009 5008 5008 5008 5007 5007 5006 5006 5007 5007 5008 5008 5009 5010 5011 5012 5014 5016 5018 5020 5021 5023 5025 5027 5029 5031 5034 5037 5040 5044 5048 5053 5060 5066 5071
5093 5085 5078 5070 5063 5056 5050 5044 5039 5035 5031 5028 5026 5023 5020 5018 5015 5014 5012 5011 5010 5009 5008 5008 5008 5008 5007 5006 5005 5004 5005 5005 5004 5004 5004 5004 5004 5005 5005 5005 5006 5007 5008 5009 5010 5011 5013 5015 5016 5018 5020 5021 5023 5025 5028 5030 5033 5036 5039 5044 5049 5054 5059
5089 5082 5075 5068 5060 5054 5048 5042 5037 5032 5029 5026 5024 5021 5018 5015 5014 5012 5011 5010 5008 5007 5006 5006 5005 5005 5004 5003 5002 5002 5003 5003 5002 5002 5002 5002 5002 5002 5003 5003 5003 5004 5005 5006 5007 5008 5009 5011 5012 5014 5015 5017 5018 5020 5022 5024 5027 5029 5033 5036 5040 5045 5051
5086 5080 5073 5065 5058 5052 5046 5041 5035 5030 5027 5024 5021 5018 5016 5013 5012 5010 5009 5008 5007 5005 5004 5004 5003 5002 5001 5001 5001 5001 5001 5001 5000 5000 5000 5000 5000 5001 5001 5001 5001 5002 5003 5004 5004 5005 5006 5007 5009 5010 5011 5013 5014 5016 5018 5020 5022 5025 5027 5030 5034 5038 5043
5082 5076 5069 5063 5056 5050 5045 5040 5034 5029 5024 5021 5018 5016 5013 5011 5010 5009 5007 5006 5005 5004 5003 5002 5002 5001 5000 5001 5001 5001 5000 4999 4998 4998 4998 4998 4999 4999 4999 4999 5000 5000 5001 5001 5002 5003 5004 5005 5006 5007 5008 5010 5011 5013 5014 5016 5019 5021 5023 5026 5029 5033 5037
5075 5069 5063 5058 5053 5047 5041 5037 5032 5027 5022 5019 5016 5013 5011 5009 5008 5007 5006 5004 5003 5002 5002 5001 5000 5000 5000 5001 5000 5000 4999 4998 4997 4997 4997 4997 4997 4997 4998 4998 4998 4998 4999 5000 5001 5002 5003 5004 5004 5005 5007 5008 5009 5010 5012 5014 5016 5018 5020 5023 5026 5029 5033
5071 5065 5058 5053 5048 5044 5039 5034 5029 5025 5020 5017 5014 5012 5009 5008 5007 5006 5005 5004 5003 5002 5002 5001 5000 5000 5000 5000 5000 4999 4998 4997 4996 4996 4996 4996 4996 4996 4996 4997 4997 4997 4998 4999 5000 5001 5002 5003 5004 5005 5005 5006 5008 5009 5010 5012 5013 5015 5018 5020 5023 5026 5030
5068 5062 5055 5049 5043 5039 5036 5031 5027 5023 5018 5015 5012 5010 5008 5006 5005 5004 5003 5003 5002 5002 5001 5000 5000 5000 4999 4999 4999 4998 4997 4996 4995 4995 4995 4995 4995 4995 4996 4996 4996 4997 4997 4998 4999 5000 5001 5002 5003 5004 5005 5006 5007 5008 5009 5010 5012 5013 5016 5018 5021 5024 5027
5064 5059 5053 5047 5040 5035 5031 5028 5024 5021 5017 5013 5011 5009 5007 5005 5004 5003 5002 5001 5001 5001 5000 4999 4999 4999 4998 4998 4998 4998 4996 4995 4995 4994 4994 4994 4994 4995 4995 4995 4996 4996 4997 4998 4998 4999 5000 5001 5002 5003 5004 5005 5006 5007 5009 5010 5011 5013 5015 5017 5019 5022 5025
5063 5057 5052 5046 5040 5034 5029 5025 5022 5018 5015 5011 5008 5007 5005 5004 5003 5002 5001 5000 5000 4999 4999 4998 4998 4998 4997 4997 4997 4997 4996 4995 4994 4994 4994 4994 4994 4994 4995 4995 4996 4996 4997 4997 4998 4999 5000 5001 5002 5003 5004 5005 5006 5007 5009 5010 5011 5012 5014 5016 5018 5021 5023
5064 5057 5051 5045 5039 5033 5028 5023 5020 5017 5013 5010 5007 5005 5003 5003 5002 5001 5000 4999 4998 4998 4998 4997 4997 4997 4996 4997 4996 4996 4995 4994 4994 4994 4994 4994 4994 4994 4994 4995 4996 4996 4997 4998 4998 4999 5000 5001 5002 5003 5004 5005 5006 5007 5009 5010 5011 5013 5015 5016 5019 5021 5023
5064 5057 5050 5044 5038 5032 5027 5022 5018 5015 5012 5009 5006 5004 5002 5001 5000 4999 4998 4998 4997 4997 4996 4996 4996 4995 4995 4996 4995 4995 4994 4994 4993 4993 4993 4994 4994 4994 4995 4995 4996 4997 4997 4998 4999 5000 5001 5002 5002 5003 5004 5005 5006 5008 5009 5011 5012 5014 5015 5017 5019 5022 5024